Location: Abundant Grace Fellowship
(35.0349°N, 90.0924°W)
Time: 09:40:47
(UTC+00:00)

CZ-3 Stage 3 - Pass Details

Date: 18 January 2026
Orbit: 207 x 9473 km, 30.8° (Epoch: 9 February)

Event Time Altitude Azimuth Distance (km) Brightness Sun altitude
Rises 02:19:28 0° 267° (W) 5,682 7.4 -37.6°
Reaches altitude 10° 02:25:00 10° 263° (W) 3,353 6.0 -38.7°
Enters shadow 02:28:47 24° 253° (WSW) 1,671 4.2 -39.5°
